• In Sweden
  • List of Countries
  • For 7 days
  • Water Temperature
  • Satellite Maps
  • Weather Map
  • Weather Widgets
  • user-avatar
    Login

    Hourly Weather Georgievskoe

    Today, 26 September, Wednesday

    Time Temperature Precipitation Wind Pressure Humidity
    00:00 +3°C° 0 mm 4 mps 747 mmHg 83%
    01:00 +3°C° 0 mm 4 mps 748 mmHg 83%
    02:00 +2°C° 0 mm 3 mps 748 mmHg 86%
    03:00 +2°C° 0 mm 3 mps 748 mmHg 86%
    04:00 +1°C° 0 mm 3 mps 749 mmHg 86%
    05:00 +1°C° 0 mm 3 mps 749 mmHg 85%
    06:00 +2°C° 0 mm 3 mps 750 mmHg 82%
    07:00 +3°C° 0 mm 3 mps 750 mmHg 78%
    08:00 +4°C° 0 mm 4 mps 750 mmHg 75%
    09:00 +5°C° 0 mm 4 mps 750 mmHg 71%
    10:00 +7°C° 0 mm 4 mps 750 mmHg 67%
    11:00 +8°C° 0 mm 4 mps 750 mmHg 64%
    12:00 +9°C° 0 mm 5 mps 749 mmHg 62%
    13:00 +10°C° 0 mm 5 mps 749 mmHg 60%
    14:00 +10°C° 0 mm 5 mps 748 mmHg 58%
    15:00 +10°C° 0 mm 5 mps 748 mmHg 61%
    16:00 +9°C° 0 mm 5 mps 747 mmHg 63%
    17:00 +8°C° 0 mm 5 mps 746 mmHg 66%
    18:00 +7°C° 0.4 mm 5 mps 745 mmHg 70%
    19:00 +7°C° 0.4 mm 6 mps 744 mmHg 74%
    20:00 +5°C° 0.4 mm 7 mps 743 mmHg 79%
    21:00 +5°C° 1.4 mm 8 mps 741 mmHg 81%
    22:00 +5°C° 1.4 mm 8 mps 740 mmHg 84%
    23:00 +5°C° 1.4 mm 9 mps 738 mmHg 86%

    Tomorrow, 27 September, Thursday

    Time Temperature Precipitation Wind Pressure Humidity
    00:00 +5°C° 1.4 mm 8 mps 737 mmHg 86%
    01:00 +5°C° 1.4 mm 8 mps 736 mmHg 87%
    02:00 +5°C° 1.4 mm 8 mps 734 mmHg 87%
    03:00 +5°C° 1 mm 7 mps 734 mmHg 87%
    04:00 +6°C° 1 mm 7 mps 733 mmHg 88%
    05:00 +7°C° 1 mm 6 mps 733 mmHg 88%
    06:00 +7°C° 0.3 mm 6 mps 733 mmHg 84%
    07:00 +6°C° 0.3 mm 7 mps 733 mmHg 80%
    08:00 +6°C° 0.3 mm 7 mps 734 mmHg 77%
    09:00 +8°C° 0.2 mm 7 mps 734 mmHg 73%
    10:00 +7°C° 0.2 mm 8 mps 734 mmHg 69%
    11:00 +7°C° 0.2 mm 8 mps 734 mmHg 66%
    12:00 +7°C° 0.3 mm 8 mps 735 mmHg 64%
    13:00 +7°C° 0.3 mm 8 mps 735 mmHg 63%
    14:00 +7°C° 0.3 mm 8 mps 736 mmHg 61%
    15:00 +8°C° 0 mm 7 mps 736 mmHg 63%
    16:00 +7°C° 0 mm 6 mps 737 mmHg 65%
    17:00 +7°C° 0 mm 5 mps 737 mmHg 66%
    18:00 +6°C° 0 mm 5 mps 737 mmHg 68%
    19:00 +6°C° 0 mm 5 mps 738 mmHg 69%
    20:00 +5°C° 0 mm 5 mps 738 mmHg 71%
    21:00 +5°C° 0 mm 5 mps 738 mmHg 72%
    22:00 +5°C° 0 mm 5 mps 738 mmHg 73%
    23:00 +5°C° 0 mm 5 mps 739 mmHg 74%

    Day after tomorrow, 28 September, Friday

    Time Temperature Precipitation Wind Pressure Humidity
    00:00 +5°C° 0 mm 4 mps 738 mmHg 76%
    01:00 +5°C° 0 mm 4 mps 738 mmHg 78%
    02:00 +5°C° 0 mm 4 mps 738 mmHg 79%
    03:00 +4°C° 0.9 mm 4 mps 737 mmHg 83%
    04:00 +4°C° 0.9 mm 4 mps 736 mmHg 86%
    05:00 +4°C° 0.9 mm 4 mps 735 mmHg 90%
    06:00 +6°C° 2.5 mm 4 mps 733 mmHg 90%
    07:00 +7°C° 2.5 mm 5 mps 732 mmHg 91%
    08:00 +9°C° 2.5 mm 5 mps 731 mmHg 91%
    09:00 +9°C° 2.2 mm 5 mps 731 mmHg 90%
    10:00 +10°C° 2.2 mm 5 mps 730 mmHg 89%
    11:00 +10°C° 2.2 mm 5 mps 730 mmHg 88%
    12:00 +10°C° 0.4 mm 6 mps 731 mmHg 84%
    13:00 +9°C° 0.4 mm 7 mps 731 mmHg 81%
    14:00 +9°C° 0.4 mm 8 mps 732 mmHg 78%
    15:00 +6°C° 0.1 mm 7 mps 734 mmHg 79%
    16:00 +5°C° 0.1 mm 6 mps 735 mmHg 80%
    17:00 +5°C° 0.1 mm 5 mps 737 mmHg 81%
    18:00 +3°C° 0 mm 5 mps 738 mmHg 81%
    19:00 +2°C° 0 mm 5 mps 739 mmHg 81%
    20:00 +1°C° 0 mm 4 mps 740 mmHg 81%
    21:00 +1°C° 0 mm 4 mps 741 mmHg 80%
    22:00 0°C° 0 mm 4 mps 741 mmHg 80%
    23:00 0°C° 0 mm 4 mps 742 mmHg 79%

    29 September, Saturday

    Time Temperature Precipitation Wind Pressure Humidity
    00:00 0°C° 0 mm 4 mps 743 mmHg 79%
    01:00 -1°C° 0 mm 4 mps 743 mmHg 79%
    02:00 -1°C° 0 mm 4 mps 744 mmHg 79%
    03:00 -1°C° 0 mm 4 mps 744 mmHg 79%
    04:00 -1°C° 0 mm 4 mps 745 mmHg 79%
    05:00 -1°C° 0 mm 4 mps 745 mmHg 79%
    06:00 0°C° 0 mm 4 mps 746 mmHg 74%
    07:00 0°C° 0 mm 5 mps 746 mmHg 70%
    08:00 +1°C° 0 mm 5 mps 747 mmHg 65%
    09:00 +2°C° 0 mm 5 mps 747 mmHg 61%
    10:00 +3°C° 0 mm 5 mps 748 mmHg 57%
    11:00 +5°C° 0 mm 5 mps 749 mmHg 53%
    12:00 +5°C° 0 mm 5 mps 749 mmHg 52%
    13:00 +6°C° 0 mm 5 mps 749 mmHg 51%
    14:00 +6°C° 0 mm 5 mps 749 mmHg 51%
    15:00 +5°C° 0 mm 4 mps 750 mmHg 55%
    16:00 +4°C° 0 mm 3 mps 750 mmHg 60%
    17:00 +4°C° 0 mm 2 mps 750 mmHg 65%
    18:00 +3°C° 0 mm 2 mps 751 mmHg 68%
    19:00 +2°C° 0 mm 2 mps 751 mmHg 71%
    20:00 +1°C° 0 mm 2 mps 752 mmHg 74%
    21:00 +1°C° 0 mm 2 mps 752 mmHg 76%
    22:00 -1°C° 0 mm 2 mps 752 mmHg 77%
    23:00 -1°C° 0 mm 2 mps 753 mmHg 79%

    30 September, Sunday

    Time Temperature Precipitation Wind Pressure Humidity
    00:00 -1°C° 0 mm 2 mps 753 mmHg 80%
    01:00 -1°C° 0 mm 2 mps 753 mmHg 81%
    02:00 -1°C° 0 mm 2 mps 753 mmHg 83%
    03:00 -1°C° 0 mm 2 mps 753 mmHg 84%
    04:00 -2°C° 0 mm 2 mps 753 mmHg 84%
    05:00 -2°C° 0 mm 2 mps 753 mmHg 85%
    06:00 +1°C° 0 mm 2 mps 753 mmHg 82%
    07:00 +2°C° 0 mm 2 mps 753 mmHg 78%
    08:00 +3°C° 0 mm 2 mps 753 mmHg 74%
    09:00 +4°C° 0 mm 3 mps 752 mmHg 69%
    10:00 +5°C° 0 mm 3 mps 752 mmHg 64%
    11:00 +7°C° 0 mm 4 mps 752 mmHg 59%
    12:00 +7°C° 0 mm 4 mps 752 mmHg 58%
    13:00 +7°C° 0 mm 4 mps 751 mmHg 58%
    14:00 +8°C° 0 mm 4 mps 751 mmHg 57%
    15:00 +7°C° 0 mm 4 mps 750 mmHg 61%
    16:00 +6°C° 0 mm 4 mps 750 mmHg 65%
    17:00 +7°C° 0 mm 3 mps 750 mmHg 70%
    18:00 +6°C° 0 mm 4 mps 750 mmHg 72%
    19:00 +6°C° 0 mm 4 mps 749 mmHg 74%
    20:00 +6°C° 0 mm 4 mps 749 mmHg 76%
    21:00 +5°C° 0 mm 4 mps 749 mmHg 78%
    22:00 +5°C° 0 mm 4 mps 749 mmHg 80%
    23:00 +5°C° 0 mm 4 mps 749 mmHg 82%

    1 October, Monday

    Time Temperature Precipitation Wind Pressure Humidity
    00:00 +5°C° 0 mm 4 mps 749 mmHg 82%
    01:00 +5°C° 0 mm 4 mps 749 mmHg 82%
    02:00 +5°C° 0 mm 3 mps 749 mmHg 82%
    03:00 +5°C° 0 mm 3 mps 749 mmHg 83%
    04:00 +5°C° 0 mm 3 mps 749 mmHg 84%
    05:00 +5°C° 0 mm 3 mps 749 mmHg 84%
    06:00 +6°C° 0 mm 4 mps 749 mmHg 83%
    07:00 +6°C° 0 mm 4 mps 749 mmHg 81%
    08:00 +7°C° 0 mm 4 mps 749 mmHg 79%
    09:00 +8°C° 0 mm 4 mps 749 mmHg 75%
    10:00 +10°C° 0 mm 4 mps 749 mmHg 72%
    11:00 +11°C° 0 mm 4 mps 749 mmHg 68%
    12:00 +12°C° 0 mm 4 mps 749 mmHg 65%
    13:00 +12°C° 0 mm 4 mps 749 mmHg 63%
    14:00 +13°C° 0 mm 5 mps 749 mmHg 60%
    15:00 +11°C° 0 mm 4 mps 749 mmHg 66%
    16:00 +10°C° 0 mm 3 mps 749 mmHg 71%
    17:00 +9°C° 0 mm 2 mps 749 mmHg 76%
    18:00 +8°C° 0 mm 2 mps 749 mmHg 79%
    19:00 +8°C° 0 mm 2 mps 749 mmHg 81%
    20:00 +7°C° 0 mm 2 mps 749 mmHg 84%
    21:00 +6°C° 0 mm 2 mps 750 mmHg 85%
    22:00 +6°C° 0 mm 2 mps 750 mmHg 86%
    23:00 +6°C° 0 mm 2 mps 750 mmHg 86%
    Show more